sat.trackr.live / text

‹ back to catalog

PIESAT D

NORAD 56156 · 2023-047D

PAYLOAD ACTIVE UNKNOWN

§ Identity

Operator
Country
PRC
Launch date
2023-03-30
Launch site
TAISC
Launch vehicle
Mass (kg)
RCS (m²)

External: N2YO · Heavens-Above · Gunter

§ Orbital elements

Epoch: 2026-05-24T10:22:38.446752Z

Period
95.09 min
Inclination
97.5038°
Eccentricity
0.0001451
Mean motion
15.14307879 rev/d
Perigee alt
522.1 km
Apogee alt
524.1 km
Semi-major
6,901.2 km
B*
8.4811e-5
RAAN
331.9195°
Arg perigee
104.0976°
Mean anomaly
256.0417°
Rev number
17,420

§ Raw data

PIESAT D1 56156U 23047D   26144.43238943  .00001487  00000+0  84811-4 0  99972 56156  97.5038 331.9195 0001451 104.0976 256.0417 15.14307879174200

JSON: /api/v1/satellites/56156 · /tle

For live sub-satellite position, see the globe view (requires WebGL).

§ Visibility from observer

Set your observer location to see the next 7 days of passes ≥ 10°. The values pass through the URL so the page stays shareable.

No JS? Fill the form by hand. The geolocation button needs JavaScript.